Regional Weather Roundup
Issued by NWS Kansas City/Pleasant Hill, MO

Home | Current Version | Previous Version | Text Only | Print | Product List | Glossary On
Versions: 1 2 3 4 5 6 7 8 9 10 11 12 13 14 15 16 17 18 19 20 21 22 23 24 25 26 27
000
ASUS43 KEAX 291510
RWREAX

WEATHER ROUNDUP FOR EASTERN KANSAS AND NORTHWEST MISSOURI
NATIONAL WEATHER SERVICE KANSAS CITY/PLEASANT HILL MO
1000 AM CDT FRI JUL 29 2016

KSZ040-057-103>105-MOZ028-029-037-043-291600-
...KANSAS CITY METROPOLITAN AREA...

CITY           SKY/WX    TMP DP  RH WIND       PRES   REMARKS
K.C. INTL      PTSUNNY   77  63  61 N6        30.03S
K.C. DOWNTOWN  MOSUNNY   79  64  60 NE5       30.01S
LEES SUMMIT    CLOUDY    75  65  70 E7        30.02S
OLATHE - IXD   CLOUDY    76  68  76 N6        30.03R
OLATHE - OJC   CLOUDY    75  66  73 E7        30.02S
LAWRENCE       SUNNY     77  67  71 NE5       30.03R

$$

MOZ001>008-011>017-020>025-030>033-038>040-044>046-053-054-291600-
...NORTHERN AND CENTRAL MISSOURI...

CITY           SKY/WX    TMP DP  RH WIND       PRES   REMARKS
ST. JOSEPH     SUNNY     76  66  71 N9G18     30.02F
MOSBY          SUNNY     77  63  61 CALM      30.02R
WHITEMAN AFB   PTSUNNY   76  70  82 NE8       29.99F
CLINTON        PTSUNNY   75  72  88 CALM      30.00S
SEDALIA        PTSUNNY   76  69  79 NE3       30.01F
WARSAW         NOT AVBL
CHILLICOTHE      N/A     76  66  71 VRB3      30.02S
KIRKSVILLE     MOSUNNY   73  64  73 N5        30.01S

$$

MOZ041-047>049-056>058-063>065-088>090-097-291600-
...EASTERN AND SOUTHERN MISSOURI...

CITY           SKY/WX    TMP DP  RH WIND       PRES   REMARKS
ST. LOUIS INTL CLOUDY    81  68  64 VRB5      29.98R
SPIRIT OF STL  CLOUDY    80  70  71 CALM      29.96S
COLUMBIA       CLOUDY    74  68  81 CALM      30.00R
JEFFERSON CITY CLOUDY    76  69  79 VRB3      29.99R
ROLLA          CLOUDY    74  68  81 CALM      29.99R
OSAGE BEACH    CLOUDY    75  70  84 CALM      30.01R
SPRINGFIELD    CLOUDY    81  72  74 SW6       29.98F
BRANSON        PTSUNNY   81  73  78 CALM      30.02S
JOPLIN         CLOUDY    77  69  76 CALM      30.00S
WEST PLAINS    SUNNY     81  70  69 CALM      30.02S

$$

IAZ060-094-KSZ022-034>040-054-083-096-NEZ052-066-093-291600-
...KANSAS...SOUTHEAST NEBRASKA AND IOWA...

CITY           SKY/WX    TMP DP  RH WIND       PRES   REMARKS
TOPEKA         SUNNY     75  66  73 NE6       30.03S
MANHATTAN      MOSUNNY   74  69  85 CALM      30.04R
EMPORIA        CLOUDY    73  68  84 W5        30.05S
CHANUTE        CLOUDY    72  68  87 NW8       30.04R
WICHITA        PTSUNNY   74  69  85 NW9       30.06S
OMAHA          CLOUDY    72  60  66 N5        30.07F
LINCOLN        LGT RAIN  71  66  84 NE8       30.09S
FALLS CITY     PTSUNNY   73  67  81 N3        30.04S
LAMONI         CLOUDY    69  63  81 NW13      30.03S
DES MOINES     CLOUDY    70  62  76 N5        30.02S

$$





USA.gov is the U.S. government's official web portal to all federal, state and local government web resources and services.